TimeCDT,TemperatureF,Dew PointF,Humidity,Sea Level PressureIn,VisibilityMPH,Wind Direction,Wind SpeedMPH,Gust SpeedMPH,PrecipitationIn,Events,Conditions,WindDirDegrees,DateUTC
12:53 AM,57.9,43.0,58,29.87,10.0,Variable,3.5,-,N/A,,Clear,0,2013-06-01 05:53:00
1:53 AM,53.1,44.1,71,29.88,10.0,West,4.6,-,N/A,,Clear,260,2013-06-01 06:53:00
2:53 AM,55.0,44.1,67,29.87,10.0,WNW,10.4,-,N/A,,Clear,290,2013-06-01 07:53:00
3:53 AM,55.0,44.1,67,29.86,10.0,NW,17.3,27.6,N/A,,Clear,310,2013-06-01 08:53:00
4:53 AM,55.0,44.1,67,29.87,10.0,WNW,10.4,-,N/A,,Clear,290,2013-06-01 09:53:00
5:53 AM,55.9,45.0,67,29.87,10.0,NW,16.1,24.2,N/A,,Overcast,310,2013-06-01 10:53:00
6:53 AM,55.9,46.0,69,29.88,10.0,NW,20.7,26.5,N/A,,Mostly Cloudy,310,2013-06-01 11:53:00
7:53 AM,57.9,46.0,65,29.89,10.0,NW,24.2,33.4,N/A,,Clear,320,2013-06-01 12:53:00
8:53 AM,60.1,46.9,62,29.93,10.0,NW,25.3,31.1,N/A,,Scattered Clouds,320,2013-06-01 13:53:00
9:53 AM,62.1,46.9,58,29.95,10.0,NNW,20.7,34.5,N/A,,Mostly Cloudy,330,2013-06-01 14:53:00
10:11 AM,62.6,46.4,55,30.00,10.0,NNW,26.5,36.8,N/A,,Scattered Clouds,340,2013-06-01 15:11:00
10:53 AM,62.1,46.0,56,29.98,10.0,NNW,25.3,28.8,N/A,,Overcast,330,2013-06-01 15:53:00
11:53 AM,66.0,46.0,48,29.99,10.0,NNW,24.2,32.2,N/A,,Mostly Cloudy,330,2013-06-01 16:53:00
12:53 PM,68.0,46.0,45,30.00,10.0,North,25.3,33.4,N/A,,Partly Cloudy,350,2013-06-01 17:53:00
1:17 PM,68.0,46.4,46,30.03,1.8,North,25.3,32.2,N/A,,Haze,350,2013-06-01 18:17:00
1:31 PM,66.2,46.4,49,30.04,10.0,NW,18.4,29.9,N/A,,Mostly Cloudy,320,2013-06-01 18:31:00
1:53 PM,68.0,46.0,45,30.02,10.0,North,17.3,29.9,N/A,,Mostly Cloudy,350,2013-06-01 18:53:00
2:53 PM,66.0,45.0,47,30.03,10.0,NNW,20.7,26.5,N/A,,Overcast,340,2013-06-01 19:53:00
3:53 PM,66.0,45.0,47,30.04,10.0,NW,17.3,31.1,N/A,,Overcast,320,2013-06-01 20:53:00
4:53 PM,66.9,46.0,47,30.04,10.0,NNW,19.6,26.5,N/A,,Overcast,330,2013-06-01 21:53:00
5:53 PM,69.1,45.0,42,30.04,10.0,NNW,19.6,28.8,N/A,,Mostly Cloudy,340,2013-06-01 22:53:00
6:53 PM,70.0,44.1,39,30.04,10.0,North,17.3,27.6,N/A,,Clear,350,2013-06-01 23:53:00
7:53 PM,66.9,44.1,44,30.06,10.0,North,13.8,-,N/A,,Scattered Clouds,360,2013-06-02 00:53:00
8:53 PM,62.1,45.0,53,30.08,10.0,North,8.1,-,N/A,,Clear,10,2013-06-02 01:53:00
9:53 PM,55.0,46.0,72,30.09,10.0,North,8.1,-,N/A,,Clear,10,2013-06-02 02:53:00
10:53 PM,50.0,45.0,83,30.13,10.0,NNW,4.6,-,N/A,,Clear,330,2013-06-02 03:53:00
11:53 PM,50.0,45.0,83,30.13,10.0,North,6.9,-,N/A,,Clear,360,2013-06-02 04:53:00